• Join FlightAware (Why Join?)
  • Login
  • US Flag GB Flag 
03:46 EST


 

Airport Tracker/Info


-or-


 

Live Flight TrackerFlight Track Log ✈ FSR411 ✈ 23-Oct-2013 ✈ KUZA - KDET

Flight Track Log - Related Links

Times and Time Zones

All times are in EDT time to prevent confusion due to time zone crossing. See the FSR411 flight status page for this flight to view local times or setup timezone preferences in your user account.

Time Position Orientation Groundspeed Altitude Reporting Facility
EDT Latitude Longitude Course Direction KTS MPH feet Rate Location/Type
15:25 35.0061 -81.0542 328° Northwest 163 188 1,300  Level Atlanta Center
15:25 35.0250 -81.0686 328° Northwest 181 208 2,300 1,121 Climbing Atlanta Center
15:26 35.0269 -81.1422 272° West 236 272 3,000 1,471 Climbing Atlanta Center
15:28 35.1217 -81.1872 339° North 253 291 6,100 2,571 Climbing Atlanta Center
15:29 35.1969 -81.1844 North 258 297 9,600 3,300 Climbing Atlanta Center
15:30 35.2781 -81.1742 North 277 319 12,700 2,550 Climbing Atlanta Center
15:31 35.3725 -81.1072 30° Northeast 332 382 14,700 2,550 Climbing Atlanta Center
15:32 35.4756 -81.0628 19° North 373 429 17,800 3,150 Climbing Atlanta Center
15:33 35.5786 -81.0947 346° North 367 422 21,000 3,100 Climbing Atlanta Center
15:34 35.6858 -81.1267 346° North 374 430 24,000 2,650 Climbing Atlanta Center
15:35 35.7908 -81.1586 346° North 380 437 26,300 2,150 Climbing Atlanta Center
15:36 35.9000 -81.1908 347° North 389 448 28,300 2,000 Climbing Atlanta Center
15:37 36.0133 -81.2200 348° North 404 465 30,300 1,950 Climbing Atlanta Center
15:38 36.1267 -81.2547 346° North 409 471 32,200 1,350 Climbing Atlanta Center
15:39 36.2444 -81.2867 348° North 415 478 33,000 500 Climbing Atlanta Center
15:40 36.3661 -81.3211 347° North 427 491 33,200 550 Climbing Atlanta Center
15:41 36.4878 -81.3558 347° North 449 517 34,100 1,200 Climbing Atlanta Center
15:42 36.6136 -81.3903 348° North 456 525 35,600 1,300 Climbing Atlanta Center
15:43 36.7353 -81.4278 346° North 451 519 36,700 952 Climbing Atlanta Center
15:45 36.9800 -81.4989 347° North 451 519 38,600 942 Climbing Indianapolis Center
15:46 37.1108 -81.5358 347° North 442 509 39,700 677 Climbing Indianapolis Center
15:47 37.2297 -81.5694 347° North 439 505 40,000 145 Climbing Indianapolis Center
15:48 37.3803 -81.5875 355° North 464 534 40,000  Level Indianapolis Center
15:49 37.5119 -81.6061 354° North 475 547 40,000  Level Indianapolis Center
15:50 37.6450 -81.6250 354° North 481 554 40,000  Level Indianapolis Center
15:51 37.7786 -81.6436 354° North 483 556 40,000  Level Indianapolis Center
15:52 37.9097 -81.6611 354° North 482 555 40,000  Level Indianapolis Center
15:53 38.0444 -81.6797 354° North 485 558 40,000  Level Indianapolis Center
15:54 38.2061 -81.7014 354° North 483 556 40,000  Level Indianapolis Center
15:55 38.3389 -81.7206 354° North 478 550 40,000  Level Indianapolis Center
15:56 38.4703 -81.7403 353° North 473 544 40,000  Level Indianapolis Center
15:57 38.6014 -81.7586 354° North 466 536 40,000  Level Indianapolis Center
15:58 38.7325 -81.7747 355° North 460 529 40,000  Level Indianapolis Center
16:00 38.9539 -81.8042 354° North 455 524 40,000  Level Cleveland Center
16:01 39.1061 -81.8272 353° North 460 529 40,000  Level Cleveland Center
16:02 39.2342 -81.8453 354° North 463 533 40,000 -533 Level Cleveland Center
16:04 39.3744 -81.8675 353° North 460 529 38,800 -1,333 Descending Indianapolis Center
16:05 39.5208 -81.8889 354° North 439 505 37,000 -1,536 Descending Indianapolis Center
16:06 39.6500 -81.9081 353° North 462 532 35,600 -1,152 Descending Indianapolis Center
16:07 39.7844 -81.9272 354° North 462 532 34,600 -968 Descending Indianapolis Center
16:08 39.9122 -81.9447 354° North 463 533 33,600 -968 Descending Indianapolis Center
16:09 40.0386 -81.9642 353° North 460 529 32,600 -919 Descending Indianapolis Center
16:10 40.1647 -81.9822 354° North 458 527 31,700 -968 Descending Indianapolis Center
16:11 40.3061 -82.0044 353° North 453 521 30,600 -823 Descending Indianapolis Center
16:12 40.4325 -82.0211 354° North 451 519 30,000 -290 Descending Indianapolis Center
16:13 40.5608 -82.0389 354° North 456 525 30,000  Level Indianapolis Center
16:14 40.6883 -82.0611 352° North 458 527 30,000 -53 Level Indianapolis Center
16:15 40.7897 -82.0856 350° North 446 513 29,900 -1,009 Descending Cleveland Center
16:16 40.9017 -82.1439 339° North 430 495 28,100 -1,935 Descending Cleveland Center
16:17 41.0256 -82.2067 339° North 436 502 25,900 -1,935 Descending Cleveland Center
16:18 41.1325 -82.2589 340° North 435 501 24,100 -1,839 Descending Cleveland Center
16:19 41.2428 -82.3147 339° North 421 484 22,100 -2,226 Descending Cleveland Center
16:20 41.3667 -82.3778 339° North 403 464 19,500 -2,419 Descending Cleveland Center
16:21 41.4672 -82.4294 339° North 387 445 17,100 -2,274 Descending Cleveland Center
16:22 41.5642 -82.4792 339° North 371 427 14,800 -2,169 Descending Cleveland Center
16:22 41.5967 -82.4950 340° North 361 415 14,100 -2,032 Descending Cleveland Center
16:23 41.6506 -82.5217 340° North 358 412 12,700 -2,382 Descending Cleveland Center
16:24 41.7036 -82.5506 338° Northwest 352 405 11,400 -1,935 Descending Cleveland Center
16:24 41.7408 -82.5692 340° North 350 403 10,700 -1,279 Descending Cleveland Center
16:25 41.7944 -82.5983 338° Northwest 311 358 10,100 -667 Descending Cleveland Center
16:25 41.8419 -82.6214 340° North 328 377 10,000 -97 Descending Cleveland Center
16:26 41.8842 -82.6322 349° North 344 396 10,000  Level Cleveland Center
16:26 41.9264 -82.6550 338° Northwest 322 371 10,000 -500 Level Cleveland Center
16:27 41.9542 -82.6778 329° Northwest 251 289 9,500 -1,452 Descending Cleveland Center
16:27 41.9894 -82.6981 337° Northwest 270 311 8,500 -1,645 Descending Cleveland Center
16:28 42.0206 -82.7144 339° North 254 292 7,800 -1,452 Descending Cleveland Center
16:28 42.0522 -82.7314 338° Northwest 248 285 7,000 -1,672 Descending Cleveland Center
16:29 42.0831 -82.7481 338° Northwest 222 255 6,100 -1,742 Descending Cleveland Center
16:29 42.1097 -82.7642 336° Northwest 232 267 5,200 -1,672 Descending Cleveland Center
16:30 42.1414 -82.7808 339° North 228 262 4,400 -1,161 Descending Cleveland Center
16:30 42.1786 -82.7994 340° North 224 258 4,000 -484 Descending Cleveland Center
16:31 42.1936 -82.8103 332° Northwest 179 206 3,900 -677 Descending Cleveland Center
16:31 42.2222 -82.8239 341° North 183 211 3,300 -900 Descending Cleveland Center
16:32 42.2361 -82.8328 335° Northwest 150 173 3,000 -290 Descending Cleveland Center
16:32 42.2558 -82.8536 322° Northwest 154 177 3,000  Level Cleveland Center
16:33 42.2708 -82.8714 319° Northwest 140 161 3,000  Level Cleveland Center
16:33 42.2872 -82.8867 325° Northwest 146 168 3,000  Level Cleveland Center
16:34 42.3061 -82.9042 326° Northwest 163 188 3,000 -194 Level Cleveland Center
16:34 42.3203 -82.9197 321° Northwest 149 171 2,800 -492 Descending Cleveland Center
16:35 42.3333 -82.9333 322° Northwest 116 133 2,500 -581 Descending Cleveland Center
16:36 42.3461 -82.9464 323° Northwest 134 154 2,200 -655 Descending Cleveland Center
16:36 42.3567 -82.9564 325° Northwest 116 133 1,900 -774 Descending Cleveland Center
16:37 42.3769 -82.9756 325° Northwest 121 139 1,400 -689 Descending Cleveland Center
16:37 42.3861 -82.9856 321° Northwest 114 131 1,200 -571 Descending Cleveland Center
16:38 42.4047 -83.0058 321° Northwest 118 136 800 -500 Descending Cleveland Center